Location: Dos Palmas
(32.4468°N, 116.8732°W)
Time: 21:39:12
(UTC+00:00)

AAUSAT CUBESAT 2 - Visible Passes

Search period start: 19 September 2024 00:00
Search period end: 29 September 2024 00:00
Orbit: 487 x 495 km, 97.6° (Epoch: 18 September)

Date Brightness Start Highest point End Pass type
(mag) Time Alt. Az. Time Alt. Az. Time Alt. Az.
19 Sep ? 12:08:09 10° NNE 12:11:39 47° E 12:15:07 10° S visible
20 Sep ? 11:46:21 10° NE 11:49:15 23° E 11:52:08 10° SSE visible
21 Sep ? 11:25:34 10° ENE 11:26:43 11° E 11:27:51 10° ESE visible
21 Sep ? 12:57:06 10° N 13:00:18 30° WNW 13:03:29 10° SW visible
22 Sep ? 12:34:19 10° N 12:37:54 67° WNW 12:41:28 10° SSW visible
23 Sep ? 12:11:49 10° NNE 12:15:22 53° E 12:18:53 10° S visible
24 Sep ? 11:49:40 10° NE 11:52:41 25° E 11:55:42 10° SSE visible
25 Sep ? 11:28:22 10° ENE 11:29:53 12° E 11:31:25 10° ESE visible
25 Sep ? 13:00:18 10° NNW 13:03:26 28° WNW 13:06:32 10° SW visible
26 Sep ? 12:37:12 10° N 12:40:45 61° WNW 12:44:18 10° SSW visible
27 Sep ? 12:14:23 10° NNE 12:17:57 58° E 12:21:30 10° S visible
28 Sep ? 11:51:56 10° NE 11:55:01 26° E 11:58:05 10° SSE visible
